Weather History for Burlington, VT

Change the Weather History Date:

Monday, July 29, 2013

  Actual Average Record
Temperature  
Mean Temperature 74 °F 71 °F  
Max Temperature 83 °F 81 °F 98 °F (1949)
Min Temperature 65 °F 60 °F 45 °F (1987)
Degree Days  
Heating Degree Days 0 0  
Month to date heating degree days 7 8  
Since 1 June heating degree days 72 81  
Since 1 July heating degree days 7 8  
Cooling Degree Days 9 6  
Month to date cooling degree days 276 174  
Year to date cooling degree days 438 290  
Since 1 June cooling degree days 391 271  
Growing Degree Days 24 (Base 50)    
Moisture  
Dew Point 62 °F    
Average Humidity 67    
Maximum Humidity 93    
Minimum Humidity 40    
Precipitation  
Precipitation 0.16 in 0.14 in 1.91 in (1892)
Month to date precipitation 4.49 3.89  
Year to date precipitation 29.62 19.89  
Snow  
Snow 0.00 in 0.00 in 0.00 in (2002)
Month to date snowfall 0.0 0.0  
Since 1 June snowfall 0.0 0.0  
Since 1 July snowfall 0.0 0.0  
Snow Depth 0.00 in    
Sea Level Pressure  
Sea Level Pressure 29.99 in    
Wind  
Wind Speed 4 mph (North)    
Max Wind Speed 16 mph    
Max Gust Speed 21 mph    
Visibility 10 miles    
Events Rain , Thunderstorm    
T = Trace of Precipitation, MM = Missing Value Source: NWS Daily Summary

Daily Weather History Graph

Daily Weather History Graph

Search for Another Location

Airport:

Trip Planner

Search our weather history database for the weather conditions in past years. The results will help you decide how hot, cold, wet, or windy it might be!

Date:

Astronomy

Jul. 29, 2013 Rise Set
Actual Time 5:36 AM EDT 8:21 PM EDT
Civil Twilight 5:02 AM EDT 8:54 PM EDT
Nautical Twilight 4:20 AM EDT 9:36 PM EDT
Astronomical Twilight 3:30 AM EDT 10:25 PM EDT
Moon 11:56 PM EDT (7/29) 1:36 PM EDT (7/29)
Length of Visible Light 15h 51m
Length of Day
14h 44m
Waning Gibbous, 51% of the Moon is Illuminated
Jul 29
Waning Gibbous
Jul 29
Last Quarter
Aug 6
New
Aug 14
First Quarter
Aug 20
Full

Hourly Weather History & Observations

Time (EDT) Temp. Heat Index Dew Point Humidity Pressure Visibility Wind Dir Wind Speed Gust Speed Precip Events Conditions
12:29 AM 71.6 °F - 64.4 °F 78% 29.94 in 10.0 mi WNW 3.5 mph - 0.00 in   Overcast
12:54 AM 70.0 °F - 64.0 °F 81% 29.95 in 9.0 mi NW 4.6 mph - 0.00 in Rain Light Rain
1:25 AM 68.0 °F - 64.4 °F 88% 29.95 in 8.0 mi NNW 3.5 mph - 0.04 in Rain Light Rain
1:33 AM 68.0 °F - 64.4 °F 88% 29.95 in 5.0 mi NW 3.5 mph - 0.06 in Rain Rain
1:52 AM 68.0 °F - 64.4 °F 88% 29.95 in 10.0 mi NNW 5.8 mph - 0.10 in Rain , Thunderstorm Light Thunderstorms and Rain
1:54 AM 68.0 °F - 64.9 °F 90% 29.95 in 8.0 mi North 4.6 mph - 0.10 in Rain , Thunderstorm Thunderstorms and Rain
2:01 AM 66.2 °F - 64.4 °F 94% 29.95 in 6.0 mi NNE 5.8 mph - 0.03 in Rain , Thunderstorm Thunderstorms and Rain
2:10 AM 66.2 °F - 64.4 °F 94% 29.95 in 10.0 mi NE 3.5 mph - 0.04 in Rain , Thunderstorm Light Rain
2:23 AM 66.2 °F - 66.2 °F 100% 29.96 in 7.0 mi Calm Calm - 0.06 in Rain Rain
2:47 AM 66.2 °F - 64.4 °F 94% 29.96 in 10.0 mi ENE 4.6 mph - 0.07 in Rain Light Rain
2:54 AM 66.9 °F - 64.9 °F 93% 29.95 in 10.0 mi ESE 4.6 mph - 0.07 in Rain Light Rain
3:24 AM 66.2 °F - 64.4 °F 94% 29.96 in 10.0 mi East 5.8 mph - 0.00 in   Overcast
3:54 AM 66.9 °F - 64.9 °F 93% 29.97 in 10.0 mi Calm Calm - 0.00 in   Overcast
4:54 AM 66.0 °F - 64.0 °F 93% 29.98 in 10.0 mi Calm Calm - N/A   Mostly Cloudy
5:28 AM 66.2 °F - 64.4 °F 94% 29.99 in 10.0 mi Calm Calm - N/A   Overcast
5:54 AM 66.9 °F - 64.9 °F 93% 29.99 in 10.0 mi NNW 3.5 mph - N/A   Mostly Cloudy
6:18 AM 66.2 °F - 64.4 °F 94% 29.99 in 10.0 mi North 3.5 mph - N/A   Mostly Cloudy
6:54 AM 66.9 °F - 64.0 °F 90% 30.00 in 10.0 mi North 3.5 mph - N/A   Mostly Cloudy
7:54 AM 68.0 °F - 63.0 °F 84% 30.00 in 10.0 mi North 3.5 mph - N/A   Mostly Cloudy
8:54 AM 71.1 °F - 62.1 °F 73% 30.01 in 10.0 mi North 4.6 mph - N/A   Scattered Clouds
9:54 AM 72.0 °F - 61.0 °F 68% 30.02 in 10.0 mi North 5.8 mph - N/A   Scattered Clouds
10:54 AM 75.0 °F - 62.1 °F 64% 30.01 in 10.0 mi North 3.5 mph - N/A   Partly Cloudy
11:54 AM 77.0 °F - 60.1 °F 56% 30.00 in 10.0 mi Variable 4.6 mph - N/A   Scattered Clouds
12:54 PM 77.0 °F - 59.0 °F 54% 29.99 in 10.0 mi SW 6.9 mph - N/A   Mostly Cloudy
1:54 PM 78.1 °F - 60.1 °F 54% 29.99 in 10.0 mi Calm Calm - N/A   Mostly Cloudy
2:54 PM 80.1 °F 80.2 °F 55.9 °F 43% 29.98 in 10.0 mi SW 6.9 mph - N/A   Mostly Cloudy
3:54 PM 82.9 °F 82.0 °F 55.0 °F 38% 29.98 in 10.0 mi WNW 10.4 mph - N/A   Scattered Clouds
4:54 PM 77.0 °F - 60.1 °F 56% 29.99 in 10.0 mi NNW 15.0 mph - N/A   Scattered Clouds
5:06 PM 75.2 °F - 60.8 °F 61% 29.99 in 10.0 mi NNW 15.0 mph - N/A   Scattered Clouds
5:54 PM 72.0 °F - 59.0 °F 64% 30.00 in 10.0 mi North 6.9 mph - N/A   Scattered Clouds
6:54 PM 75.0 °F - 57.9 °F 55% 30.00 in 10.0 mi Variable 3.5 mph - N/A   Scattered Clouds
7:54 PM 71.1 °F - 59.0 °F 66% 30.02 in 10.0 mi East 3.5 mph - N/A   Scattered Clouds
8:54 PM 70.0 °F - 57.9 °F 65% 30.05 in 10.0 mi North 3.5 mph - N/A   Scattered Clouds
9:54 PM 69.1 °F - 59.0 °F 70% 30.07 in 10.0 mi Calm Calm - N/A   Mostly Cloudy
10:54 PM 70.0 °F - 54.0 °F 57% 30.08 in 10.0 mi WNW 4.6 mph - N/A   Overcast
11:54 PM 68.0 °F - 54.0 °F 61% 30.08 in 10.0 mi NW 5.8 mph - N/A   Mostly Cloudy